Wind_Speed
5 6 7 7 7 9 15 19 19 18 19 17 15 14 13 11 10 7 5 4 3 4 6 7 7 7 7 7 7 5 4 4 4 4 5 5 5 5 5 5 5 5 5 5 4 4 3 3 3
5 6 7 6 6 8 13 16 18 19 19 18 16 15 12 11 9 7 6 5 3 4 7 8 8 8 8 8 8 7 6 5 4 4 5 6 6 6 6 6 6 5 5 5 5 4 4 4 3
4 5 5 6 6 8 12 16 18 20 19 18 18 16 14 12 10 8 6 5 4 5 6 8 9 10 9 9 9 8 7 6 5 5 5 6 6 6 6 6 6 6 6 6 5 5 4 4 3
4 5 4 5 7 10 13 15 17 18 19 17 17 17 16 15 12 10 7 5 4 5 6 8 9 10 10 10 10 9 9 7 6 5 6 6 7 6 6 6 6 6 6 6 5 5 4 4 3
4 4 3 6 8 10 13 16 18 19 19 17 18 18 18 16 13 11 9 6 5 6 7 8 9 11 11 11 11 10 9 8 7 6 6 6 6 6 6 6 6 6 6 5 5 5 4 3 3
2 1 2 6 7 9 12 15 18 18 18 18 19 19 18 16 14 13 10 7 5 6 8 8 10 11 12 12 12 12 10 9 8 7 7 6 7 6 6 6 6 6 6 5 5 4 4 3 2
1 1 1 5 7 9 12 15 19 19 19 19 20 21 20 18 16 14 10 9 7 7 9 9 10 12 12 13 13 13 12 10 9 8 7 7 7 7 6 6 6 6 6 5 4 4 3 3 2
2 2 0 4 7 9 11 14 19 18 19 19 21 23 23 20 15 13 11 9 8 7 8 8 10 12 12 13 14 14 13 11 10 8 7 7 7 7 6 6 6 6 5 5 4 4 3 3 2
3 2 1 3 5 7 11 14 17 19 19 21 23 23 23 20 16 13 11 9 8 6 7 9 10 12 13 14 15 14 13 12 11 9 8 7 6 6 6 6 6 5 5 4 4 4 3 3 3
4 4 3 4 5 6 10 13 16 18 20 22 24 24 24 21 16 13 10 9 7 5 7 9 10 12 14 15 16 15 14 13 11 10 8 8 7 7 6 6 6 5 4 4 4 4 3 2 2
7 6 5 5 6 7 9 12 13 17 21 21 23 24 24 21 16 13 11 9 7 7 7 9 11 12 14 16 17 16 15 14 12 11 9 8 7 7 6 6 6 5 5 4 4 3 3 2 1
8 7 8 7 6 7 8 10 12 17 20 22 23 24 22 20 17 14 12 9 8 6 6 10 11 13 14 15 17 16 16 14 13 11 10 9 8 7 6 6 5 5 4 4 3 3 2 1 1
9 9 10 8 6 6 7 9 12 16 20 22 24 23 21 20 17 14 10 8 7 5 7 8 10 12 13 14 16 17 17 16 14 12 11 9 8 7 6 5 5 4 3 3 2 2 1 1 1
9 9 8 6 5 5 7 8 11 16 20 22 23 23 21 20 18 16 12 10 8 7 7 8 9 12 13 14 16 17 16 16 15 13 12 10 9 7 6 5 4 4 3 2 1 1 1 1 1
9 7 5 4 4 6 8 9 12 16 19 22 23 22 22 20 18 17 14 9 8 8 7 7 8 10 13 14 16 17 16 16 16 15 13 11 10 8 7 5 4 3 2 2 2 1 1 1 1
8 6 5 5 7 7 9 10 13 16 19 20 21 22 22 21 19 17 15 11 10 9 6 6 8 9 11 14 16 17 17 17 16 15 14 12 10 9 7 5 4 3 3 3 2 2 1 1 1
9 7 7 6 8 7 9 11 13 16 19 20 21 21 21 20 19 16 15 13 11 9 8 6 8 8 10 13 15 17 17 17 17 16 15 13 11 9 7 5 5 4 4 3 3 3 2 2 2
11 11 9 7 8 10 11 12 13 16 19 20 20 21 21 20 19 17 15 13 11 9 7 6 7 8 10 12 13 16 17 18 17 16 16 14 12 10 8 6 6 5 4 4 4 3 3 3 2
13 13 11 8 10 13 14 14 14 17 19 21 20 20 20 19 18 17 16 13 12 9 5 5 6 8 10 11 14 15 16 18 17 17 16 15 13 12 10 8 7 6 6 5 4 4 4 4 4
13 13 12 10 11 14 16 16 17 17 18 19 19 18 17 17 17 17 15 13 11 8 5 4 5 6 8 10 13 14 16 18 18 18 17 15 14 13 11 9 8 8 7 7 6 6 5 5 4
14 13 12 12 13 15 18 18 18 17 16 17 17 16 16 15 15 15 14 13 11 8 5 5 4 6 7 8 10 13 16 18 18 17 17 16 15 14 12 11 10 9 9 8 8 7 7 6 5
14 12 14 15 16 17 18 19 17 17 16 16 16 15 14 14 14 13 13 12 11 8 4 3 4 6 7 9 10 13 16 17 18 18 17 16 16 15 14 12 12 11 10 10 9 8 8 7 7
14 14 16 17 18 18 18 19 17 16 17 16 15 13 11 12 12 12 12 12 10 8 5 3 4 5 7 9 11 14 15 17 18 18 17 17 16 16 15 13 13 13 12 11 11 10 9 9 8
14 15 16 17 17 17 16 17 16 15 16 16 14 11 10 11 11 12 12 11 10 7 3 2 3 4 6 9 11 14 15 16 18 18 17 17 17 16 15 14 14 14 14 13 12 11 11 10 10
14 15 16 17 17 14 14 15 15 16 16 15 13 9 9 9 10 11 12 11 10 7 3 2 2 4 6 8 11 13 15 16 18 19 18 18 18 17 17 16 15 15 15 14 14 13 13 13 12
13 15 17 18 16 14 14 14 13 14 15 15 11 7 7 9 9 11 12 11 10 7 4 2 2 4 6 8 10 12 14 16 17 18 18 18 18 18 17 17 16 16 16 16 15 15 15 15 15
14 15 16 18 18 17 16 15 15 15 16 14 11 7 6 8 9 10 11 10 9 7 5 3 3 4 7 8 10 11 14 16 16 17 17 18 18 18 18 18 17 17 18 18 17 16 16 17 17
14 12 15 18 19 19 17 16 16 17 16 15 11 10 8 8 9 10 9 10 10 8 6 4 3 4 6 8 9 10 12 15 16 16 17 18 18 17 18 19 18 18 19 20 19 18 18 18 18
15 15 17 18 19 20 19 18 17 17 17 15 14 11 8 9 11 10 9 9 10 9 6 4 4 4 6 7 8 10 12 12 13 15 17 18 18 18 19 18 19 19 19 19 20 20 21 21 21
19 19 19 20 20 20 21 20 18 19 18 17 15 13 12 12 12 11 10 10 10 9 8 5 5 5 6 6 8 10 11 12 12 13 15 16 17 17 17 18 19 19 19 19 20 21 21 21 22
Wind_Direction
66 77 76 77 72 56 40 29 14 4 359 0 0 358 358 360 357 353 342 323 274 226 210 207 206 204 203 205 206 206 217 246 272 296 309 313 313 314 319 326 330 330 333 336 337 340 341 342 347
67 76 81 88 85 56 40 28 8 360 359 360 359 358 1 359 352 342 339 320 267 228 216 211 212 210 210 212 213 213 219 239 262 285 301 308 310 310 313 317 320 323 326 328 328 331 334 336 342
63 72 77 91 82 52 39 19 7 357 358 360 3 3 360 357 351 339 331 319 271 231 217 215 215 215 215 217 216 216 221 233 254 276 290 301 305 305 307 310 313 315 319 320 322 327 330 333 334
50 73 75 66 62 48 34 13 1 354 351 355 1 2 357 352 351 346 334 320 276 243 222 218 220 219 218 219 218 218 222 229 248 267 281 291 295 299 303 306 309 310 311 313 316 321 325 329 328
54 79 75 57 49 42 26 7 356 355 353 355 359 359 354 351 350 349 344 332 285 251 233 226 222 221 221 220 220 220 224 230 241 258 273 285 290 295 301 304 304 306 308 309 313 317 318 322 319
57 78 57 61 50 37 21 1 351 352 351 352 356 355 354 355 350 342 336 328 297 259 241 231 224 223 224 224 221 220 224 230 238 251 268 278 285 291 297 300 301 303 303 303 307 313 316 317 309
346 312 65 60 50 32 13 356 345 345 345 345 348 351 349 348 346 340 330 319 301 270 247 231 222 221 225 226 220 219 223 228 234 244 258 271 280 288 293 295 296 300 301 300 302 307 314 312 297
278 237 92 52 36 20 3 345 337 338 339 343 345 345 345 344 341 336 331 318 307 266 241 232 225 222 223 223 221 221 222 224 230 238 249 264 274 282 286 291 294 296 296 296 297 298 304 301 285
260 228 274 8 22 1 345 336 331 335 339 343 345 345 343 343 339 336 323 318 311 280 246 239 234 226 225 223 220 219 220 222 227 233 244 257 268 279 282 286 289 290 290 295 296 290 293 291 280
254 235 274 317 335 335 323 322 327 334 335 339 342 343 342 340 338 341 331 323 312 288 256 241 232 227 226 223 218 215 217 220 222 227 238 250 264 274 277 282 283 281 284 292 292 287 290 294 283
254 241 258 284 309 309 307 315 326 331 336 339 345 345 342 339 336 335 335 329 306 291 261 237 232 230 226 221 215 212 215 217 219 225 235 245 256 263 270 278 278 277 282 289 286 282 285 295 281
263 252 256 264 278 292 303 318 329 334 341 346 347 346 346 342 340 333 330 318 306 291 265 245 235 225 223 216 211 211 211 214 216 222 231 241 248 256 266 269 267 272 283 291 282 275 270 269 263
279 265 258 261 269 282 299 313 330 342 344 347 348 347 349 346 345 341 324 317 315 294 270 246 232 222 221 213 211 212 212 214 214 217 225 234 240 247 256 261 261 261 271 282 273 263 276 262 260
289 278 268 265 276 283 294 314 335 342 345 346 346 346 349 350 349 347 338 320 310 301 282 252 232 219 220 215 213 216 217 216 215 214 220 229 233 239 245 249 252 253 256 248 203 203 282 269 267
289 279 265 259 285 285 291 314 332 336 342 344 347 347 351 352 349 344 338 332 323 302 287 245 235 233 230 229 215 214 214 215 216 215 218 223 224 229 236 235 235 238 223 198 184 192 207 239 246
284 269 250 278 304 294 296 314 327 330 335 341 346 348 352 352 349 345 339 333 332 311 294 247 241 230 224 213 207 207 211 214 216 213 212 215 219 222 224 222 218 218 208 201 197 190 198 217 205
274 264 268 297 317 305 303 311 322 323 332 339 343 346 349 349 350 349 344 335 328 316 288 265 241 222 210 204 205 206 207 209 210 208 208 211 215 218 215 215 212 208 201 196 194 189 197 198 180
269 267 272 285 303 302 301 304 313 319 327 335 341 344 348 350 350 349 347 340 331 321 289 261 242 224 210 209 207 205 205 205 206 204 206 207 209 211 210 212 211 207 200 191 190 190 187 173 159
266 270 277 288 294 294 295 297 306 312 319 330 337 341 347 350 350 349 345 343 336 323 290 258 251 224 213 210 206 205 206 205 205 204 204 207 208 211 211 214 213 207 200 195 190 186 183 170 158
263 270 273 273 278 281 285 289 297 302 314 323 333 338 346 350 350 351 349 346 341 333 313 270 246 217 209 209 207 206 204 203 204 205 207 208 208 209 211 212 211 207 202 200 193 188 185 177 168
260 270 272 270 273 268 277 284 292 297 305 313 323 335 344 349 351 352 351 349 345 335 304 266 238 222 221 214 209 205 203 204 206 207 209 209 208 209 209 211 211 209 206 203 199 195 191 189 185
263 267 273 266 264 264 270 280 286 291 294 300 314 328 337 344 350 351 350 348 345 341 320 253 238 232 228 218 207 202 204 204 204 207 207 208 208 211 212 214 214 213 212 211 209 207 204 202 202
262 267 271 268 265 265 268 275 281 288 290 294 309 320 333 343 348 352 352 349 347 344 330 271 246 234 225 214 204 198 201 202 204 206 208 210 209 211 214 217 217 218 219 218 218 218 217 218 220
259 264 266 265 265 266 270 274 282 285 291 295 306 312 329 342 350 354 357 354 351 346 331 277 234 223 217 213 204 198 201 204 206 208 211 212 212 214 217 220 221 222 224 224 225 226 227 229 233
258 263 269 265 262 263 270 277 287 288 290 297 303 312 326 337 349 354 356 355 354 353 339 319 254 212 206 203 203 203 204 206 207 210 214 215 214 216 219 222 225 227 229 232 233 234 236 239 242
260 264 268 268 264 260 269 282 293 291 298 298 301 308 318 328 340 348 353 353 353 351 342 311 258 214 203 203 207 207 207 208 208 210 215 217 218 221 224 227 229 231 233 236 239 241 243 245 248
252 260 266 266 264 262 267 277 287 295 306 309 299 295 302 324 332 340 345 352 353 349 336 304 272 233 216 209 208 208 208 209 211 213 216 219 222 226 230 232 234 235 237 239 241 245 247 251 254
250 256 259 260 261 261 264 272 280 292 302 312 305 293 295 318 331 329 332 344 350 345 332 308 281 250 221 211 210 211 209 211 215 217 220 224 227 232 234 236 237 238 240 242 244 248 252 255 258
245 252 258 259 261 263 265 267 271 283 292 300 307 300 295 315 316 316 331 337 342 339 328 307 287 266 240 230 221 221 217 217 217 219 224 227 230 234 237 239 241 242 243 244 247 251 254 256 259
243 247 252 256 259 260 263 266 269 278 283 286 294 300 303 310 305 307 320 324 333 334 323 302 291 279 260 242 231 227 225 225 225 223 225 228 231 235 238 238 240 243 246 249 252 254 254 258 260
Height
5902 5901 5900 5900 5900 5898 5895 5894 5894 5893 5892 5891 5889 5888 5887 5886 5886 5887 5884 5882 5882 5883 5884 5885 5886 5887 5889 5890 5891 5892 5893 5894 5895 5895 5895 5896 5896 5895 5895 5894 5894 5893 5892 5892 5891 5891 5890 5890 5890
5902 5902 5902 5901 5899 5897 5895 5894 5895 5893 5892 5890 5889 5888 5887 5886 5885 5883 5881 5881 5881 5882 5882 5884 5885 5886 5888 5889 5890 5891 5892 5893 5894 5895 5895 5896 5896 5895 5895 5894 5894 5893 5892 5892 5891 5891 5890 5890 5890
5903 5902 5902 5901 5898 5897 5896 5895 5894 5893 5892 5890 5889 5887 5886 5885 5884 5882 5880 5879 5879 5880 5881 5882 5884 5885 5886 5888 5889 5891 5892 5893 5894 5894 5895 5895 5896 5895 5895 5894 5893 5893 5892 5891 5891 5890 5890 5889 5889
5903 5903 5903 5901 5898 5897 5896 5895 5894 5893 5892 5891 5889 5887 5885 5884 5882 5881 5879 5878 5877 5878 5879 5881 5882 5884 5885 5887 5888 5889 5891 5892 5893 5894 5894 5895 5895 5895 5894 5894 5893 5892 5892 5891 5891 5890 5890 5889 5889
5903 5903 5903 5900 5899 5897 5896 5895 5894 5894 5893 5891 5889 5886 5885 5883 5881 5879 5877 5876 5876 5876 5877 5879 5880 5882 5883 5885 5887 5888 5889 5891 5892 5893 5893 5894 5894 5894 5894 5893 5893 5892 5891 5891 5890 5890 5889 5889 5889
5904 5904 5903 5901 5899 5898 5897 5895 5894 5894 5893 5890 5888 5885 5883 5881 5879 5877 5875 5875 5874 5874 5875 5877 5878 5880 5882 5883 5885 5886 5888 5889 5891 5892 5893 5893 5893 5894 5893 5893 5892 5892 5891 5890 5890 5889 5889 5888 5888
5904 5903 5902 5901 5900 5898 5897 5896 5895 5894 5892 5890 5887 5884 5881 5880 5877 5875 5873 5872 5872 5872 5873 5874 5876 5878 5880 5881 5883 5885 5886 5888 5889 5890 5891 5892 5893 5893 5893 5892 5892 5891 5890 5890 5889 5889 5888 5888 5888
5904 5904 5901 5900 5899 5898 5897 5896 5895 5894 5891 5889 5886 5883 5879 5877 5876 5873 5871 5869 5869 5869 5870 5872 5874 5876 5877 5879 5881 5883 5885 5886 5888 5889 5890 5891 5891 5892 5892 5891 5891 5890 5889 5889 5889 5888 5888 5888 5887
5903 5903 5901 5899 5898 5897 5896 5895 5894 5893 5890 5888 5885 5881 5878 5874 5872 5871 5869 5867 5867 5867 5868 5870 5872 5873 5875 5877 5879 5881 5883 5884 5886 5888 5889 5889 5890 5891 5891 5891 5890 5889 5889 5888 5888 5887 5887 5887 5887
5902 5901 5900 5899 5898 5896 5896 5895 5894 5892 5889 5887 5884 5880 5875 5871 5870 5868 5866 5865 5864 5865 5866 5867 5868 5870 5872 5874 5876 5879 5881 5883 5884 5886 5887 5888 5889 5889 5889 5889 5889 5889 5888 5888 5887 5887 5887 5886 5886
5901 5900 5898 5897 5896 5896 5895 5894 5893 5890 5888 5885 5882 5878 5873 5869 5867 5865 5864 5862 5861 5862 5863 5864 5865 5867 5870 5872 5874 5876 5879 5881 5883 5884 5886 5887 5887 5888 5888 5888 5888 5888 5887 5887 5886 5886 5886 5886 5886
5899 5898 5896 5895 5894 5894 5894 5893 5891 5889 5887 5884 5881 5877 5872 5868 5864 5863 5861 5860 5859 5859 5860 5861 5862 5864 5867 5869 5872 5874 5877 5879 5881 5883 5884 5885 5886 5886 5887 5887 5887 5887 5887 5886 5885 5885 5885 5885 5885
5897 5895 5894 5893 5893 5893 5892 5891 5889 5888 5886 5883 5880 5876 5871 5867 5863 5860 5858 5856 5856 5857 5857 5857 5858 5861 5863 5866 5869 5872 5874 5877 5879 5881 5883 5883 5884 5885 5885 5886 5886 5886 5886 5885 5885 5885 5885 5885 5884
5896 5894 5893 5892 5892 5891 5890 5889 5887 5886 5884 5882 5879 5875 5870 5865 5862 5859 5856 5855 5854 5854 5854 5854 5855 5857 5860 5863 5866 5869 5871 5874 5877 5879 5881 5882 5883 5884 5884 5885 5885 5885 5885 5885 5884 5885 5885 5884 5884
5894 5893 5892 5891 5890 5889 5888 5887 5886 5884 5882 5880 5877 5873 5868 5864 5860 5857 5854 5852 5852 5852 5852 5852 5853 5854 5857 5860 5862 5866 5869 5872 5874 5877 5879 5880 5881 5882 5883 5884 5884 5884 5884 5884 5884 5884 5884 5884 5884
5892 5891 5891 5890 5889 5887 5887 5885 5884 5881 5880 5879 5876 5872 5867 5863 5859 5856 5852 5850 5849 5849 5849 5850 5850 5852 5853 5855 5859 5862 5866 5869 5872 5874 5876 5878 5879 5880 5881 5882 5883 5883 5883 5884 5884 5884 5884 5884 5884
5889 5889 5888 5887 5886 5885 5884 5883 5882 5879 5878 5877 5875 5871 5867 5863 5858 5854 5852 5849 5848 5847 5847 5848 5848 5849 5851 5853 5856 5859 5863 5866 5869 5872 5874 5876 5877 5879 5880 5881 5882 5882 5883 5883 5884 5884 5884 5884 5884
5887 5886 5885 5884 5884 5882 5882 5881 5879 5878 5876 5875 5873 5870 5866 5862 5858 5854 5851 5849 5846 5844 5845 5846 5846 5848 5849 5850 5853 5857 5861 5864 5867 5869 5872 5873 5875 5877 5878 5879 5880 5881 5882 5882 5883 5883 5883 5883 5883
5883 5882 5882 5882 5881 5880 5879 5879 5878 5876 5875 5874 5871 5868 5865 5861 5857 5854 5850 5847 5845 5843 5843 5843 5844 5845 5847 5849 5852 5855 5858 5861 5864 5867 5869 5871 5873 5875 5876 5878 5879 5880 5881 5881 5882 5882 5883 5883 5883
5880 5879 5879 5879 5879 5878 5876 5876 5875 5874 5873 5872 5869 5867 5864 5860 5857 5853 5850 5847 5844 5842 5841 5842 5842 5843 5845 5848 5850 5853 5855 5858 5861 5864 5866 5869 5871 5873 5874 5876 5877 5878 5880 5880 5881 5882 5882 5882 5883
5876 5876 5876 5876 5875 5875 5874 5873 5873 5873 5872 5870 5868 5865 5862 5859 5856 5853 5849 5846 5844 5842 5840 5840 5841 5842 5844 5846 5847 5850 5853 5856 5859 5861 5864 5866 5869 5870 5872 5874 5875 5877 5878 5879 5880 5881 5881 5882 5883
5872 5872 5872 5872 5872 5872 5872 5870 5871 5870 5869 5868 5866 5863 5860 5857 5854 5851 5848 5845 5843 5841 5839 5839 5840 5841 5842 5844 5845 5847 5850 5853 5856 5859 5861 5864 5866 5868 5870 5872 5874 5875 5876 5877 5878 5879 5880 5881 5882
5867 5868 5868 5868 5868 5868 5868 5868 5869 5867 5867 5866 5864 5861 5858 5855 5853 5850 5847 5844 5842 5840 5839 5838 5838 5839 5841 5842 5843 5845 5848 5851 5853 5856 5859 5861 5864 5866 5868 5870 5871 5873 5874 5875 5877 5878 5879 5880 5880
5863 5864 5864 5864 5864 5865 5865 5865 5865 5864 5863 5862 5860 5858 5856 5853 5850 5848 5846 5843 5841 5839 5838 5837 5837 5838 5839 5840 5841 5843 5846 5848 5851 5853 5856 5859 5861 5863 5865 5867 5869 5870 5872 5873 5875 5876 5877 5878 5878
5859 5860 5860 5860 5861 5862 5862 5861 5861 5859 5859 5858 5856 5854 5853 5851 5848 5847 5845 5843 5840 5838 5837 5836 5836 5837 5837 5838 5840 5842 5844 5846 5848 5851 5853 5856 5858 5861 5863 5865 5866 5868 5869 5871 5872 5873 5874 5875 5876
5855 5856 5857 5857 5857 5858 5858 5857 5857 5856 5854 5853 5852 5851 5850 5849 5847 5845 5844 5842 5839 5838 5837 5836 5835 5835 5836 5837 5839 5840 5842 5844 5846 5848 5851 5853 5855 5857 5859 5861 5863 5865 5866 5868 5869 5870 5871 5871 5872
5851 5851 5852 5853 5853 5853 5854 5854 5853 5852 5850 5849 5849 5849 5848 5847 5844 5844 5843 5841 5839 5838 5836 5836 5835 5834 5835 5836 5837 5838 5840 5842 5844 5846 5848 5850 5853 5854 5856 5858 5860 5861 5863 5864 5865 5866 5867 5868 5868
5847 5848 5848 5848 5848 5849 5850 5850 5850 5848 5847 5847 5846 5846 5846 5845 5843 5843 5842 5840 5839 5837 5836 5835 5834 5834 5834 5834 5836 5837 5838 5839 5841 5844 5846 5848 5850 5851 5853 5854 5856 5857 5859 5860 5861 5862 5863 5863 5864
5842 5843 5843 5844 5844 5845 5845 5847 5846 5845 5844 5844 5843 5842 5842 5842 5842 5841 5839 5839 5838 5837 5835 5834 5834 5833 5833 5833 5834 5835 5837 5838 5839 5841 5842 5844 5846 5848 5849 5851 5852 5853 5854 5855 5856 5857 5858 5858 5859
5837 5838 5839 5840 5840 5840 5840 5844 5841 5840 5840 5840 5840 5840 5840 5840 5839 5839 5838 5838 5837 5836 5834 5833 5833 5832 5832 5832 5833 5834 5835 5836 5837 5838 5840 5841 5842 5844 5845 5846 5847 5849 5850 5850 5851 5852 5852 5853 5853